Regional Weather Roundup
Issued by NWS

Home | Current Version | Previous Version | Graphics & Text | Print | Product List | Glossary On
Versions: 1 2 3 4 5 6 7 8 9 10 11 12 13 14 15 16 17 18 19 20 21 22 23 24 25 26 27 28 29 30 31 32 33 34 35 36 37 38 39 40 41 42 43 44 45 46 47 48 49 50
000
ASUS45 KBOU 280207
RWRCO

WEATHER ROUNDUP FOR COLORADO
NATIONAL WEATHER SERVICE DENVER/BOULDER CO
700 PM MST THU NOV 27 2014

NOTE: "FAIR" INDICATES FEW OR NO CLOUDS BELOW 12000 FEET WITH NO
SIGNIFICANT WEATHER AND/OR OBSTRUCTIONS TO VISIBILITY.

COZ001>005-013-030-031-280300-
...NORTHWEST COLORADO...

CITY           SKY/WX    TMP DP  RH WIND       PRES   REMARKS
CRAIG          PTCLDY    30  24  78 CALM      30.28S
HAYDEN         PTCLDY    34  25  69 E13       30.29S WCI  25
MEEKER         MOCLDY    40  23  50 SW5       30.28R
MOUNT WERNER   NOT AVBL
STEAMBOAT SPGS PTCLDY    31  27  85 CALM      30.30S
WALDEN         PTCLDY    37  19  48 S13       30.29F
$$

COZ006>008-011-280300-
...WEST CENTRAL VALLEYS...

CITY           SKY/WX    TMP DP  RH WIND       PRES   REMARKS
GRAND JUNCTION MOCLDY    38  27  64 CALM      30.30F
MONTROSE       MOCLDY    36  23  59 SE6       30.35S
EAGLE          CLEAR     37  27  65 E8        30.35R
RIFLE          MOCLDY    36  28  73 CALM      30.33S
DELTA          MOCLDY    43  26  52 NE8       30.32S
NUCLA          MOCLDY    41  25  52 E8        30.37S
$$

COZ017>023-064>068-280300-
...SOUTHWEST COLORADO...

CITY           SKY/WX    TMP DP  RH WIND       PRES   REMARKS
DURANGO        MOCLDY    39  22  50 N10       30.38S
CORTEZ         CLEAR     34  21  59 NE8       30.36S WCI  27
PAGOSA SPRINGS MOCLDY    36  20  52 CALM      30.41S
TELLURIDE      MOCLDY    38  22  52 SE7       30.48S
WOLF CREEK PAS MOCLDY    30  12  47 MISG      30.54S
$$

COZ009-010-012-014-032>034-037-058>063-280300-
...CENTRAL COLORADO...

CITY           SKY/WX    TMP DP  RH WIND       PRES   REMARKS
ASPEN          MOCLDY    29  22  75 SW5       30.36S WCI  24
BUENA VISTA    PTCLDY    44  13  28 NW10G17   30.31S
COPPER MTN     MOCLDY    34  10  37 W23G32    30.46S WCI  22
BERTHOUD PASS  NOT AVBL
COTTONWOOD PAS PTCLDY    45   5  19 W35G54    30.31F
GUNNISON       MOCLDY    27  19  74 N5        30.45S WCI  21
KREMMLING      MOCLDY    34  23  64 E5        30.33R WCI  30
LEADVILLE      MOCLDY    35  13  40 N9        30.40S WCI  28
MONARCH PASS   CLEAR     28  14  54 W38G46    30.57F WCI  11
SALIDA         PTCLDY    55  10  16 W17G30    30.36F
SUNLIGHT       MOCLDY    30  25  80 CALM      30.46S
WILKERSON PASS PTCLDY    34   9  35 MISG      30.34F
$$

COZ069>075-280300-
...SAN LUIS VALLEY/SANGRE DE CRISTO MOUNTAINS...

CITY           SKY/WX    TMP DP  RH WIND       PRES   REMARKS
ALAMOSA        MOCLDY    29  14  53 SW5       30.36S WCI  24
LA VETA PASS   MOCLDY    36  16  44 S8G25     30.40F
SAGUACHE       PTCLDY    32  19  59 CALM      30.38S
$$

COZ035-036-038>040-280300-
...NORTHERN COLORADO FRONT RANGE...

CITY           SKY/WX    TMP DP  RH WIND       PRES   REMARKS
DENVER INTL AP MOCLDY    57  19  22 NW12      30.11S
DMNS CITY PARK   N/A     53  18  25 SW2       30.11S
AURORA         MOCLDY    49  21  32 SE12      30.14F
FRONT RANGE AP NOT AVBL
ERIE MUNI ARPT CLOUDY    50  20  30 NW3       30.10S
BOULDER MUN AP CLOUDY    55  21  26 E13G20    30.07S
CENTENNIAL     CLOUDY    46  20  35 S6        30.14F
BROOMFIELD     MOCLDY    59  16  18 NW18G24   30.11F
FORT COLLINS   PTCLDY    48  21  34 NE9       30.10S
LONGMONT       PTCLDY    62  19  19 W7        30.09F
$$

COZ041-046-047-076>085-087-088-280300-
...PIKES PEAK/PALMER DIVIDE AND SOUTHERN FOOTHILLS...

CITY           SKY/WX    TMP DP  RH WIND       PRES   REMARKS
COLO. SPRINGS  CLOUDY    60  14  16 W20G33    30.18S
A. F. ACADEMY  CLOUDY    52  16  23 NE10      30.19S
ELLICOTT       NOT AVBL
FALCON         NOT AVBL
FORT CARSON    CLOUDY    58  17  20 S7        30.16F
LIMON          PTCLDY    28  20  71 N5        30.14S WCI  23
MONUMENT HILL  CLOUDY    45  14  29 W6        30.20F
TRINIDAD       CLOUDY    47  25  42 W10       30.22R
$$

COZ042>045-048>051-090-091-280300-
...NORTHEAST COLORADO...

CITY           SKY/WX    TMP DP  RH WIND       PRES   REMARKS
GREELEY ARPT   CLEAR     52  21  30 NW3       30.09F
AKRON          CLEAR     43  28  55 W13       30.07F
BURLINGTON     CLOUDY    48  25  40 W10       30.09S
WRAY           CLEAR     38  30  72 W10       30.04S
STERLING       CLEAR     37  32  81 S3        30.04S
HOLYOKE        CLEAR     37  32  81 W9        30.03S
FORT MORGAN    CLEAR     49  24  37 W12G23    30.06F
$$

COZ086-089-092>099-280300-
...SOUTHEAST COLORADO...

CITY           SKY/WX    TMP DP  RH WIND       PRES   REMARKS
PUEBLO         CLOUDY    54  19  25 W12       30.14R
LA JUNTA       MOCLDY    49  24  37 W12       30.10S
LAMAR          MOCLDY    37  26  64 CALM      30.08F
SPRINGFIELD      N/A     45  21  38 SW10      30.13S
$$



USA.gov is the U.S. government's official web portal to all federal, state and local government web resources and services.